Regional Weather Roundup
Issued by NWS

Home | Current Version | Previous Version | Text Only | Print | Product List | Glossary On
Versions: 1 2 3 4 5 6 7 8 9 10 11 12 13 14 15 16 17 18 19 20 21 22 23 24 25 26 27
000
ASUS43 KMPX 092310
RWRMN
WEATHER ROUNDUP FOR MINNESOTA
NATIONAL WEATHER SERVICE TWIN CITIES/CHANHASSEN MN
600 PM CDT SUN MAY 09 2021


NOTE: "FAIR" INDICATES FEW OR NO CLOUDS BELOW 12,000 FEET WITH NO
SIGNIFICANT WEATHER AND/OR OBSTRUCTIONS TO VISIBILITY. N/A MEANS
CURRENT SKY AND/OR WEATHER CONDITIONS ARE NOT AVAILABLE.

MNZ060>063-068>070-100000-
   Twin Cities Metro

CITY           SKY/WX    TMP DP  RH WIND       PRES   REMARKS
TWIN CITIES    MOSUNNY   60  25  26 NE9       30.01R
ST PAUL        SUNNY     61  25  25 NE9G18    30.01S
CRYSTAL        SUNNY     60  25  26 N12       30.01R
BLAINE         MOSUNNY   61  25  25 N12G17    30.02R
LAKEVILLE      PTSUNNY   61  21  21 N8        30.00R
EDEN PRAIRIE   CLOUDY    60  24  25 N3        29.99R
SOUTH ST PAUL  SUNNY     61  22  23 N5        30.00S
$$
MNZ001>005-007-008-013>017-022>024-027-028-100000-
   Northwest Minnesota

CITY           SKY/WX    TMP DP  RH WIND       PRES   REMARKS
BEMIDJI        PTSUNNY   51  26  37 NE12G18   30.09S
HALLOCK        MOSUNNY   55  19  24 NE12      30.16R
ROSEAU           N/A     54 N/A N/A E14G24    30.17R
WARROAD        MOSUNNY   48  32  53 NE18      30.18S
THIEF RVR FALL SUNNY     51  22  31 NE17G23   30.14R
CROOKSTON      SUNNY     54  23  30 NE14G21   30.12R
FOSSTON        MOSUNNY   50  21  32 NE10G20   30.12R
DETROIT LAKES  SUNNY     55  21  26 NE9G16    30.06R
MOORHEAD       MOSUNNY   61   5  11 N10G23    30.07S
PARK RAPIDS    MOSUNNY   55  21  26 N10       30.05S
MAHNOMEN       FAIR      55  25  31 NE18      30.08S
$$
MNZ006-009>011-018-025>026-100000-
   North Central Minnesota

CITY           SKY/WX    TMP DP  RH WIND       PRES   REMARKS
BAUDETTE       CLOUDY    47  23  38 NE15      30.16R
INTL FALLS     CLOUDY    45  21  38 NE12G21   30.16R
WASKISH        PTSUNNY   48  21  34 NE6       30.14R
BIG FORK       PTSUNNY   50  21  32 NE12G18   30.16R
LONGVILLE      PTSUNNY   52  23  32 N7        30.07R
GRAND RAPIDS   CLOUDY    49  24  37 N8        30.11R
CRANE LAKE     CLOUDY    43  18  36 N5        30.17R
ORR            CLOUDY    46  16  29 NE5       30.11R
COOK           CLOUDY    45  19  36 N8        30.12R
WALKER         CLOUDY    50  26  38 E9        30.08R
$$
MNZ012-019>021-037-100000-
   Northeast Minnesota

CITY           SKY/WX    TMP DP  RH WIND       PRES   REMARKS
DULUTH         CLOUDY    43  25  49 E12       30.11R
ELY            CLOUDY    43  21  42 NE6       30.13R
HIBBING        CLOUDY    46  23  40 NE10      30.10R
EVELETH        CLOUDY    45  26  46 NE8       30.12R
DULUTH HARBOR  CLOUDY    41  34  75 NE16      30.14R
TWO HARBORS    CLOUDY    41  25  52 E10       30.12R
SILVER BAY     CLOUDY    39  21  48 E3        30.13S
GRAND MARAIS     N/A     39  32  76 CALM      30.15R
G MARAIS ARPRT FLURRIES  36  25  64 SE5       30.10R
$$
MNZ029>031-032-039>041-046>048-054>057-064-100000-
   West Central Minnesota

CITY           SKY/WX    TMP DP  RH WIND       PRES   REMARKS
FERGUS FALLS   SUNNY     57  23  26 N6        30.01S
WHEATON        MOSUNNY   61  12  15 NW9       30.05S
MORRIS         SUNNY     59   5  11 NW8       30.04R
ELBOW LAKE     FAIR      58  21  23 NE7       30.04S
WADENA         MOSUNNY   59  28  31 NE6       30.04R
GLENWOOD       PTSUNNY   61  21  21 NE3       30.03S
APPLETON       MOSUNNY   63  14  15 NW9       30.02S
BENSON         MOSUNNY   61  21  21 NE6       30.03S
ORTONVILLE     MOSUNNY   61  19  20 NW5G17    30.03S
MADISON        MOSUNNY   63  16  16 NW7       30.04S
WILLMAR        FAIR      63  16  16 N5        30.05S
$$
MNZ033>034-036-042>043-049>051-058-059-100000-
   Central Minnesota

CITY           SKY/WX    TMP DP  RH WIND       PRES   REMARKS
ST CLOUD       SUNNY     58  20  22 NE9G16    30.03R
SAUK CENTRE    FAIR      59  22  24 NE7       30.03S
PAYNESVILLE    MOSUNNY   59  25  27 N7        30.03S
AITKIN         PTSUNNY   54  21  28 NE12G17   30.06R
PINE RIVER     MOSUNNY   55  27  33 N8        30.09S
BRAINERD       MOSUNNY   58  22  24 N12G22    30.05R
STAPLES        MOSUNNY   57  21  24 NE9       30.05R
LONG PRAIRIE   FAIR      57  23  26 NE8       30.03S
LITTLE FALLS   MOSUNNY   57  12  17 N5        30.04R
CAMP RIPLEY    FAIR      58  22  24 N8        30.04S
LITCHFIELD     SUNNY     61  25  25 N5        30.03S
BUFFALO        PTSUNNY   61  25  25 MISG      30.02S
MAPLE LAKE     SUNNY     61  27  28 NW6       30.03S
HUTCHINSON     SUNNY     60  27  27 N10       30.03R
$$
MNZ037-044-045-052-053-100000-
   East Central Minnesota

CITY           SKY/WX    TMP DP  RH WIND       PRES   REMARKS
PRINCETON      MOSUNNY   59  25  27 E7        30.03S
MORA           MOSUNNY   54  27  35 E5        30.06R
CAMBRIDGE      MOSUNNY   59  36  41 NE6       30.04R
RUSH CITY      MOSUNNY   55  25  30 NE10      30.05R
MOOSE LAKE     CLOUDY    50  28  43 NE8       30.06R
CLOQUET        CLOUDY    43  25  49 E9        30.09R
MCGREGOR       CLOUDY    50  28  43 E10       30.08R
$$
MNZ071>073-080-081-089-090-097-098-100000-
   Southwest Minnesota

CITY           SKY/WX    TMP DP  RH WIND       PRES   REMARKS
MONTEVIDEO     MOSUNNY   61   9  12 N5        30.02S
GRANITE FALLS  MOSUNNY   62  22  21 NW8       30.03S
CANBY          PTSUNNY   60  21  21 W13G20    30.03S
MARSHALL       PTSUNNY   62  22  21 NW13G18   30.01F
REDWOOD FALLS  MOSUNNY   62  19  19 N10G17    30.00S
OLIVIA         MOSUNNY   61  19  20 N9        30.01S
PIPESTONE        N/A     55  32  41 NW14      30.04R
WINDOM         PTSUNNY   61  21  21 W13       30.00S
WORTHINGTON    CLOUDY    57  29  34 W15       30.03S
JACKSON        CLOUDY    59  21  23 NW8       30.02R
TRACY          PTSUNNY   61  13  15 N8        30.01S
SLAYTON        CLOUDY    57  22  25 N9        30.03S
$$
MNZ065>067-074>077-082>085-091>093-100000-
   South Central Minnesota

CITY           SKY/WX    TMP DP  RH WIND       PRES   REMARKS
MANKATO        MOSUNNY   62  20  19 N13G20    30.00S
NEW ULM        MOSUNNY   63  21  20 NW9G17    29.99S
ST JAMES       MOSUNNY   63  19  19 NW9       29.99S
FAIRMONT       PTSUNNY   62  21  20 NW13      30.00S
GLENCOE        SUNNY     60  23  24 NW8       30.00S
FARIBAULT      SUNNY     63  19  19 NW8       30.00S
OWATONNA       SUNNY     61  27  27 NW10G18   29.99S
WASECA         MOSUNNY   63  21  20 N15       30.00S
ALBERT LEA     PTSUNNY   61  25  25 N7        29.98S
$$
MNZ078>079-086>088-094>096-100000-
   Southeast Minnesota

CITY           SKY/WX    TMP DP  RH WIND       PRES   REMARKS
ROCHESTER      MOSUNNY   59  25  27 NW10      29.98S
RED WING       MOSUNNY   63  21  20 N8        29.98R
STANTON        MOSUNNY   59  26  27 N9G16     29.98S
DODGE CENTER   MOSUNNY   61  19  20 W13       29.98S
WINONA         SUNNY     61  32  33 NW10      29.97R
AUSTIN         MOSUNNY   63  28  27 N7G13     29.98S
PRESTON        MOSUNNY   60  24  25 NW9       29.98S
$$
ABBREVIATIONS USED IN REMARKS
   TC - TEMPERATURES IN CELSIUS
  WCI - WIND CHILL INDEX
   HX - HEAT INDEX
  VSB - VISIBILITY
$$



USA.gov is the U.S. government's official web portal to all federal, state and local government web resources and services.